STARLINK-35828

Last updated on Sun Dec 07 2025 00:02:05 GMT+0000 (Coordinated Universal Time)

1 66351U 25254D 25340.58335648 -.00116862 00000+0 -21214-2 0 9992 2 66351 53.1603 306.0281 0001370 95.4146 320.6398 15.49351011 5906
UTC large
Height (km)
Speed (km/s)
/
Latitude / Longitude
Inclination (degrees)
Orbital Period (minutes)
Azimuth
Elevation
Range (km)
Doppler Factor

Next 0 passes for location: London (51.5072 / 0.1276)

Sorry there are no passes over London.